Location: Jackson Park
(37.2862°N, 79.9123°W)
Time: 14:42:58
(UTC+00:00)

Vanguard 2 Rocket - Pass Details

Date: 19 May 2026
Orbit: 553 x 3286 km, 32.9° (Epoch: 6 June)

Event Time Altitude Azimuth Distance (km) Brightness Sun altitude
Rises 22:07:31 0° 282° (WNW) 6,903 12.8 25.3°
Reaches altitude 10° 22:12:54 10° 272° (W) 6,091 13.1 24.2°
Maximum altitude 22:28:02 29° 222° (SW) 4,755 11.2 21.3°
Drops below altitude 10° 22:42:04 10° 171° (S) 5,571 10.8 18.5°
Sets 22:46:48 0° 160° (SSE) 6,241 10.9 17.6°
